Situs Poker Online Indonesia | Agen Domino Qiu Qiu | Bandar Ceme | Judi Poker Uang Asli Terpercaya

Jackpot

Texas Poker Multi Jackpot System

Kini Telah hadir Jackpot SUPER ROYAL FLUSH

Kini Telah hadir Jackpot 2000 (khusus table VIP keatas).

Ikutilah global jackpot yang tersedia di system kami, dengan system jackpot terbaru dan pertama di indonesia, anda dapat membeli jackpot dengan harga 100 rupiah saja dan menangkan hadiahnya hingga puluhan juta rupiah.

Jackpot bukanlah suatu keharusan untuk dibeli, namun kami memberikan suatu fitur tambahan untuk member tercinta dari www.pokerpusat.net.

Terdapat tiga pilihan harga jackpot yang bisa anda beli yaitu :100,500,1000 dan 2000(khusus table VIP Keatas) rupiah.

Hadiah dari Multi jackpot system www.pokerpusat.net

  1. full house x 10 harga jackpot yang anda beli.
      (contoh:anda membeli 1000 maka:1000 X10 = 10.000)
  2. four of kind x 250 harga jackpot yang anda beli
      (contoh:anda membeli 1000 maka:1000 X250 = 250.000)
  3. Straight flush x 1200
      (contoh:anda membeli 1000 maka:1000 X1200 = 1.200.000)
  4. Royal flush x 10000 harga jackpot yang anda beli
      (contoh:anda membeli 1000 maka:1000 X10000 = 10.000.000)
  5. SUPER ROYAL FLUSH x 30000 harga jackpot yang anda beli
      (contoh:anda membeli 1000 maka:1000 X30000 = 30.000.000)

Kondisi kartu

  1. full house adalah kondisi kartu dimana kartu anda dan kartu tengah dengan total 7 kartu bisa mendapatkan nilai 5 kartu dengan kombinasi 1 tris(three of kind) dan 1 pair, contoh 3 kartu 10 dan 2 kartu 5
  2. Four of kind adalah kondisi kartu dimana kartu anda dan kartu tengah dengan total 7 kartu bisa mendapatkan nilai 5 kartu dengan kombinasi 4 kartu yang sama jumlah dan 1 kartu apapun juga contoh anda mendapatkan 4 buah kartu angka 3 dan 1 kartu apapun.
  3. Staright flush adalah kondisi kartu dimana kartu anda dan kartu tengah dengan total 7 kartu bisa mendapatkan nilai 5 kartu dengan kombinasi seri / staright dengan kembang yang sama contoh : urutan kartu dari angka 5, 6, 7, 8 , 9 10 dengan kembang yg sama misalnya as hati
  4. Royal flush adalah kondisi kartu dimana kartu anda dan kartu tengah dengan total 7 kartu bisa mendapatkan nilai 5 kartu dengan kombinasi seri / staright dengan kembang yang sama tetapi kartu tersebut haruslah dimulai dari 10. contoh 10, Queen, Jack, King dan aces dengan kembang yang sama
  5. Super Royal flush adalah kondisi kartu dimana Kedua kartu anda digabung dengan 3 kartu pertama meja haruslah royal flush. contoh kartu anda 10,Queen kembang sama dan 3 kartu pertama meja adalah Jack, King dan aces dengan kembang yang sama

Demikian adalah penjelasan dari Multi Jackpot www.pokerpusat.net terima kasih dan selamat bermain salam hoki dari kami

Texas Poker Jackpot Winner

TOP SUPER ROYAL FLUSH
No.TanggalNamaPriceWin
121/06 18:28SAHAT33333Super Royal flush15,000,000
221/06 17:40SA737IKDAVSuper Royal flush30,000,000
321/06 17:31R4ISE_9999Super Royal flush15,000,000
421/06 16:59POKERV808Super Royal flush30,000,000
521/06 08:23TLJ18Super Royal flush6,000,000
TOP ROYAL FLUSH
No.TanggalNamaPriceWin
121/06 18:46PD4DSILVIE69Royal flush5,000,000
221/06 18:23BLQ99Royal flush2,000,000
321/06 18:18BYUH999Royal flush2,000,000
421/06 18:08DEROYALE99Royal flush10,000,000
521/06 17:57NADOYO77Royal flush2,000,000
TOP STRAIGHT FLUSH
No.TanggalNamaPriceWin
121/06 18:44FARAF88Straight Flush1,200,000
221/06 18:43QQMALSOPStraight Flush240,000
321/06 18:42SATRRIA03Straight Flush240,000
421/06 18:41WAKBOY25Straight Flush1,200,000
521/06 18:41TUTOTABOT99Straight Flush600,000
LATEST JACKPOT
No.TanggalNamaPriceWin
121/06 18:48IQBAL0712Full House2,000
221/06 18:48PARNET006Four Of A Kind125,000
321/06 18:48EBITZ87Four Of A Kind125,000
421/06 18:48YESIYOSFull House5,000
521/06 18:48JULIANDRA9Full House500
621/06 18:48MV425188Full House20,000
721/06 18:48BAROH45Full House2,000
821/06 18:48BENO669Full House10,000
921/06 18:48DOTSEFull House1,000
1021/06 18:48ADYUHYEEFull House2,000
1121/06 18:48SIMONE5Four Of A Kind125,000
1221/06 18:48B18BY38Full House10,000
1321/06 18:48K3LO4S01Full House10,000
1421/06 18:48ROYALSIGERFull House5,000
1521/06 18:48J1M007Four Of A Kind25,000
1621/06 18:48KROTTO88Full House10,000
1721/06 18:48KAFEKUKANGFull House5,000
1821/06 18:48LEMOT003Full House1,000
1921/06 18:48GN96YLRNVLFull House5,000
2021/06 18:48VPNBIKZH1IFull House5,000
2121/06 18:48MARAPUNFull House2,000
2221/06 18:48XGEC19V28MFull House5,000
2321/06 18:48IRULZ1Full House1,000
2421/06 18:48FC6A0ED5Full House1,000
2521/06 18:48Q5IJTVMZQOFull House1,000
2621/06 18:48KOBRAKU17Full House2,000
2721/06 18:48VENSIA87Full House10,000
2821/06 18:48TAKEDA227Full House10,000
2921/06 18:48VGI1ERLINSKIFull House2,000
3021/06 18:48NGLOCOFull House20,000
3121/06 18:48IIR88Full House2,000
3221/06 18:48JANDA_93Full House1,000
3321/06 18:48AMMUS18Full House5,000
3421/06 18:48ANARK01Full House2,000
3521/06 18:48CECEEP88Full House5,000
3621/06 18:48ANTD89Full House2,000
3721/06 18:48HANDI788Full House2,000
3821/06 18:48AC2F2929Full House2,000
3921/06 18:48RELAXAGFGFFull House2,000
4021/06 18:48SAHCENGFull House5,000
4121/06 18:48B47385430Full House10,000
4221/06 18:48SAKITGIGI7Full House1,000
4321/06 18:48PEMATANG05Full House5,000
4421/06 18:48T4DSATRIA57Full House1,000
4521/06 18:48TEMPE444Full House2,000
4621/06 18:48IQBAL0712Four Of A Kind50,000
4721/06 18:48ZAMRUT01Full House10,000
4821/06 18:48GROUPOLABFull House2,000
4921/06 18:48T988KOHAR222Full House2,000
5021/06 18:48S1E1FAB0U3Full House2,000

Domino Multi Jackpot System

Ikutilah global jackpot yang tersedia di system kami, dengan system jackpot terbaru dan pertama di indonesia, anda dapat membeli jackpot dengan harga 100 rupiah saja dan menangkan hadiahnya hingga puluhan juta rupiah.

Jackpot bukanlah suatu keharusan untuk dibeli, namun kami memberikan suatu fitur tambahan untuk member tercinta dari www.pokerpusat.net.

Terdapat tiga pilihan harga jackpot yang bisa anda beli yaitu :100,500 dan 1000 rupiah.

Hadiah dari Multi jackpot system www.pokerpusat.net

  1. Murni Kecil x 50 harga jackpot yang anda beli.
      (contoh:anda membeli 1000 maka:1000 X 50 = 50.000)
  2. Murni Besar x 50 harga jackpot yang anda beli
      (contoh:anda membeli 1000 maka:1000 X 50 = 50.000)
  3. BALAK x 100 harga jackpot yang anda beli
      (contoh:anda membeli 1000 maka:1000 X 100 = 100.000)
  4. ENAM DEWA x 6666 harga jackpot yang anda beli
      (contoh:anda membeli 1000 maka:1000 X 6666 = 6.666.000)

Demikian adalah penjelasan dari Multi Jackpot www.pokerpusat.net terima kasih dan selamat bermain salam hoki dari kami

Domino Jackpot Winner

TOP ENAM DEWA
No.TanggalNamaPriceWin
121/06 15:29DIKI2001murni enam3,333,000
221/06 14:49DDMIT999murni enam6,666,000
321/06 14:25SJPOKER035murni enam666,600
421/06 14:16AJS77murni enam666,600
521/06 13:51CE61BEA2murni enam3,333,000
TOP BALAK
No.TanggalNamaPriceWin
121/06 18:48ZOO69balak100,000
221/06 18:44GRES12345balak50,000
321/06 18:41SJPOKER035balak10,000
421/06 18:40SEDOTTSbalak100,000
521/06 18:40THENGOL2balak100,000
LATEST JACKPOT
No.TanggalNamaPriceWin
121/06 18:48GOPE113murni kecil5,000
221/06 18:48NYASAR01murni besar50,000
321/06 18:48CUTZZZmurni besar5,000
421/06 18:48SHINDIAmurni besar50,000
521/06 18:48RUFIEmurni kecil25,000
621/06 18:48ZOO69balak100,000
721/06 18:47AOOOOOmurni besar5,000
821/06 18:46DEWWIQQmurni kecil50,000
921/06 18:46GRESLI12murni kecil50,000
1021/06 18:45GOLDA11murni kecil25,000
1121/06 18:45HOKYDONG27murni kecil50,000
1221/06 18:45ABDULL52murni kecil50,000
1321/06 18:45SEKJEN72murni besar50,000
1421/06 18:44GRES12345balak50,000
1521/06 18:43ILHAM439murni kecil50,000
1621/06 18:43CMZ21murni besar50,000
1721/06 18:43ALANG13murni kecil5,000
1821/06 18:43DONNYEARSmurni kecil5,000
1921/06 18:41SJPOKER035balak10,000
2021/06 18:41T4DROGER70murni kecil5,000
2121/06 18:40SEDOTTSbalak100,000
2221/06 18:40DEKSANGKEmurni kecil50,000
2321/06 18:40BINTANG474murni besar50,000
2421/06 18:40THENGOL2balak100,000
2521/06 18:39ARIZAL1412murni besar5,000
2621/06 18:39MAMUN74murni besar50,000
2721/06 18:39ROYCALYAlucky9910,000
2821/06 18:38SEDOTTSmurni besar50,000
2921/06 18:38G4DJASON99murni kecil25,000
3021/06 18:38EFENDI22balak50,000
3121/06 18:38AGOY33murni besar50,000
3221/06 18:37TUNGAU007balak50,000
3321/06 18:37QIEW91lucky9910,000
3421/06 18:36APEL5924murni kecil5,000
3521/06 18:36LAMBEKE92lucky9950,000
3621/06 18:36CMZ21murni besar50,000
3721/06 18:36HADEHADEmurni besar25,000
3821/06 18:35ACEK46murni besar25,000
3921/06 18:35IRGUN552murni besar50,000
4021/06 18:35PAPATONG98murni besar25,000
4121/06 18:33ZAHWABJM22balak10,000
4221/06 18:33ADAMM234balak100,000
4321/06 18:31CEPLES46balak100,000
4421/06 18:31SAGO6666murni kecil50,000
4521/06 18:31CADB03ECmurni kecil50,000
4621/06 18:31RYANAmurni kecil5,000
4721/06 18:30BEBENZ18murni kecil50,000
4821/06 18:30MBAHBULETlucky9910,000
4921/06 18:30ADITJARmurni besar25,000
5021/06 18:30ARAY8899balak50,000

Ceme Multi Jackpot System

Jackpot dilihat dari gabungan kartu pemain dengan kartu bandar. Bandar harus membeli jackpot sebanyak jumlah player yang sedang duduk. Sebagai contoh bila terdapat 3 pemain duduk bermain, dan bandar memutuskan untuk membeli jackpot Rp 1.000, maka pada periode tersebut bandar akan membeli jackpot sebanyak 3xRp1.000 = Rp3.000.

Jackpot bukanlah suatu keharusan untuk dibeli, namun kami memberikan suatu fitur tambahan untuk member tercinta dari www.pokerpusat.net.

Terdapat tiga pilihan harga jackpot yang bisa anda beli yaitu :100,500 dan 1000 rupiah.

Hadiah dari Multi jackpot system www.pokerpusat.net

  1. Murni Kecil x 50 harga jackpot yang anda beli.
      (contoh:anda membeli 1000 maka:1000 X 50 = 50.000)
  2. Murni Besar x 50 harga jackpot yang anda beli
      (contoh:anda membeli 1000 maka:1000 X 50 = 50.000)
  3. BALAK x 200 harga jackpot yang anda beli
      (contoh:anda membeli 1000 maka:1000 X 200 = 200.000)
  4. ENAM DEWA x 6666 harga jackpot yang anda beli
      (contoh:anda membeli 1000 maka:1000 X 6666 = 6.666.000)

Demikian adalah penjelasan dari Multi Jackpot www.pokerpusat.net terima kasih dan selamat bermain salam hoki dari kami

Ceme Jackpot Winner

TOP ENAM DEWA
No.TanggalNamaPriceWin
121/06 18:25HENKY100murni enam6,666,000
221/06 18:09PLECI899murni enam6,666,000
321/06 17:59JHON_KEI99murni enam6,666,000
421/06 17:43EDCBA67890murni enam666,600
521/06 17:38RIOANANDAmurni enam666,600
TOP BALAK
No.TanggalNamaPriceWin
121/06 18:48Y4T14C4balak100,000
221/06 18:48KALMAR02balak200,000
321/06 18:48TENDOTbalak20,000
421/06 18:48RJR07balak200,000
521/06 18:47KENCANG365balak200,000
LATEST JACKPOT
No.TanggalNamaPriceWin
121/06 18:49KOCENG69murni besar5,000
221/06 18:49BP887145murni kecil50,000
321/06 18:48EDYSTPmurni besar50,000
421/06 18:48SINGO52murni kecil50,000
521/06 18:48EKALSUT26murni besar5,000
621/06 18:48Y4T14C4balak100,000
721/06 18:48SAMIENSmurni besar25,000
821/06 18:48QQWWEE22murni besar5,000
921/06 18:48KALMAR02balak200,000
1021/06 18:48HAMI1212murni besar50,000
1121/06 18:48PAPAEYOmurni kecil50,000
1221/06 18:48DIAS2121murni besar50,000
1321/06 18:48TENDOTbalak20,000
1421/06 18:48RJR07balak200,000
1521/06 18:48GIO9912murni kecil50,000
1621/06 18:48BOBBY35murni kecil50,000
1721/06 18:48IYOUNG69murni kecil50,000
1821/06 18:48TESSOmurni kecil50,000
1921/06 18:48EVEN099murni kecil50,000
2021/06 18:48MOVMRKZ61Lmurni kecil50,000
2121/06 18:48GALIH1230murni kecil25,000
2221/06 18:48ADMINPB88murni kecil50,000
2321/06 18:48MYLUCKY0murni kecil50,000
2421/06 18:48BOGEL966murni kecil50,000
2521/06 18:48BOBOOOY06murni kecil50,000
2621/06 18:47VICTORIA26murni besar50,000
2721/06 18:47MUJIAH155murni kecil50,000
2821/06 18:47AL_MUZID88murni kecil5,000
2921/06 18:47KENCANG365balak200,000
3021/06 18:47KEDOT86balak200,000
3121/06 18:47RUDY120murni besar50,000
3221/06 18:47KRIWIL222murni besar25,000
3321/06 18:47SIKARDUS21murni kecil25,000
3421/06 18:47TOWI852murni kecil50,000
3521/06 18:47BEDUL_888murni kecil50,000
3621/06 18:47DWBTIE1balak200,000
3721/06 18:46TARMIDI09murni kecil5,000
3821/06 18:46PIGCOWmurni kecil50,000
3921/06 18:46BOBOOOY06murni kecil50,000
4021/06 18:46GAMPRAK006murni kecil5,000
4121/06 18:46SIKARDUS21murni besar25,000
4221/06 18:46AK5BN5I1FWmurni kecil50,000
4321/06 18:46SOTO05murni kecil50,000
4421/06 18:46X28M1F3SN8murni besar5,000
4521/06 18:46MOVMRKZ61Lmurni besar50,000
4621/06 18:46MOVMRKZ61Lmurni besar50,000
4721/06 18:46JJJAJAmurni besar50,000
4821/06 18:46CF08628Dmurni besar50,000
4921/06 18:46RALE99murni besar50,000
5021/06 18:46CF08628Dmurni besar50,000